[[{"header":{"parameterUnit":"m.s-1","parameterCategory":2,"la1":30.2991,"la2":30.254,"lo1":-89.0895,"lo2":-89.0444,"dy":0.0017,"dx":0.0017,"nx":28,"ny":28,"refTime":"2024-12-12T09:00:00:Z","depth":"0","parameterNumber":2,"parameterNumberName":"U-component_of_CURRENTS"},"data":[0,0,0,0,0,0,0,0,0,0,0,0,0,0,0,0,0,0,0,0,0,0,0,0,0,0,0,0,0,0,0,0,0,0,0,0,0,0,0,0,0,0,0,0,0,0,0,0,0,0,0,0,0,0,0,0,0,0,-0.3173,-0.3174,0,-0.3205,-0.3205,-0.3205,-0.3168,-0.3167,-0.3166,-0.3165,-0.3111,-0.3111,-0.3111,0,0,0,0,0,0,0,0,0,0,0,0,0,-0.3067,-0.3068,-0.3173,-0.3174,-0.3174,-0.3205,-0.3205,-0.3205,-0.3169,-0.3167,-0.3166,-0.3165,-0.3112,-0.3111,-0.311,0,0,0,0,0,0,0,0,0,0,0,0,0,-0.3104,-0.3069,-0.3173,-0.3163,-0.3162,-0.3205,-0.3205,-0.3205,-0.3169,-0.3167,-0.3166,-0.3164,-0.3112,-0.3111,-0.311,-0.3137,0,0,-0.3108,-0.3108,0,0,0,0,0,0,0,0,-0.3102,-0.3107,-0.3163,-0.3163,-0.3163,-0.3184,-0.3148,-0.318,-0.3169,-0.3162,-0.3165,-0.3163,-0.3131,-0.3129,-0.3134,-0.3135,-0.3133,-0.3108,-0.3108,-0.3107,-0.3107,0,0,0,0,0,0,0,-0.3099,-0.3105,-0.3182,-0.3164,-0.3164,-0.3152,-0.3155,-0.3154,-0.3151,-0.3163,-0.3161,-0.3171,-0.313,-0.3135,-0.3133,-0.3132,-0.3108,-0.3108,-0.3107,-0.3107,-0.3145,-0.3146,0,0,0,0,0,0,-0.3106,-0.3104,-0.3181,-0.3183,-0.3132,-0.3156,-0.3159,-0.3176,-0.3153,-0.3149,-0.3173,-0.317,-0.3137,-0.3134,-0.3131,-0.316,-0.3107,-0.3107,-0.3106,-0.3143,-0.3145,-0.3147,0,0,0,0,0,0,-0.3103,-0.3113,-0.318,-0.3146,-0.3154,-0.316,-0.3179,-0.3178,-0.3177,-0.3162,-0.3155,-0.3173,-0.3136,-0.3132,-0.3136,-0.3157,-0.3107,-0.3106,-0.3142,-0.3144,-0.3146,-0.3219,0,0,0,0,0,0,-0.31,-0.3112,-0.3119,-0.3147,-0.3157,-0.3212,-0.3181,-0.318,-0.3188,-0.3184,-0.316,-0.3154,-0.3134,-0.3137,-0.3135,-0.3155,-0.3105,-0.314,-0.3143,-0.3145,-0.3215,-0.3224,-0.3231,0,0,0,0,0,-0.3096,-0.3118,-0.312,-0.3129,-0.317,-0.3214,-0.3217,-0.3212,-0.319,-0.3202,-0.3185,-0.3154,-0.3152,-0.3138,-0.3136,-0.3156,-0.3139,-0.3142,-0.3145,-0.3212,-0.3222,-0.3231,0,0,0,0,0,0,-0.3071,-0.3118,-0.312,-0.3153,-0.3184,-0.3209,-0.3218,-0.3217,-0.3215,-0.3202,-0.3175,-0.317,-0.3181,-0.3163,-0.3148,-0.3176,-0.314,-0.3143,-0.3191,-0.3201,-0.3209,-0.3212,-0.3105,0,0,0,0,0,-0.3074,-0.3099,-0.3144,-0.3166,-0.3185,-0.32,-0.3213,-0.3218,-0.3226,-0.3222,-0.3209,-0.3195,-0.3196,-0.3192,-0.3188,-0.3207,-0.3191,-0.3218,-0.3226,-0.3232,-0.3235,-0.3236,-0.3244,-0.3157,-0.3157,-0.3157,0,0,-0.3067,-0.3097,-0.3109,-0.3162,-0.3179,-0.3222,-0.3203,-0.3233,-0.326,-0.3218,-0.3236,-0.3222,-0.3207,-0.3227,-0.323,-0.3212,-0.3252,-0.3237,-0.3242,-0.3241,-0.324,-0.3248,-0.3256,-0.3159,-0.3159,-0.3159,0,0,-0.3078,-0.3099,-0.3128,-0.3165,-0.3209,-0.323,-0.3241,-0.3275,-0.328,-0.3307,-0.3282,-0.3286,-0.3283,-0.3285,-0.3283,-0.3335,-0.3295,-0.3327,-0.337,-0.3372,-0.3379,-0.3385,-0.3389,-0.3394,-0.3331,-0.3331,-0.3332,0,-0.3066,-0.3115,-0.3142,-0.3189,-0.3219,-0.3237,-0.3281,-0.3303,-0.333,-0.3344,-0.3319,-0.3333,-0.3315,-0.3348,-0.336,-0.3353,-0.3342,-0.3334,-0.3382,-0.3387,-0.3392,-0.3394,-0.3399,-0.3335,-0.3335,-0.3334,-0.3334,0,-0.3106,-0.3149,-0.3171,-0.3236,-0.3274,-0.3314,-0.3361,-0.3389,-0.3392,-0.341,-0.3437,-0.3423,-0.3426,-0.3428,-0.3406,-0.3438,-0.3416,-0.3392,-0.3356,-0.3405,-0.3405,-0.3409,-0.3341,-0.334,-0.3338,-0.3337,0,0,-0.3063,-0.3177,-0.3182,-0.3222,-0.3303,-0.3336,-0.3398,-0.3458,-0.3489,-0.3506,-0.3541,-0.3546,-0.3528,-0.3524,-0.3503,-0.3505,-0.3529,-0.346,-0.3458,-0.3462,-0.3531,-0.3483,-0.3482,-0.3506,-0.3507,-0.3507,-0.3522,0,-0.3081,-0.3169,-0.3227,-0.3303,-0.3351,-0.3407,-0.3464,-0.3518,-0.3547,-0.3586,-0.3588,-0.3604,-0.3569,-0.3563,-0.3565,-0.3535,-0.354,-0.3527,-0.3485,-0.3484,-0.3433,-0.3486,-0.3395,-0.3397,-0.3526,-0.3526,-0.3527,0,-0.3092,-0.3154,-0.3234,-0.3343,-0.3368,-0.3415,-0.35,-0.3555,-0.3625,-0.3648,-0.3674,-0.367,-0.3687,-0.3638,-0.3629,-0.3617,-0.358,-0.3556,-0.3556,-0.3484,-0.3443,-0.3366,-0.3398,-0.3392,-0.3532,-0.3532,-0.3532,0,-0.3031,-0.3152,-0.3212,-0.325,-0.3377,-0.3416,-0.3473,-0.3559,-0.3607,-0.3675,-0.3705,-0.3731,-0.3727,-0.3704,-0.3653,-0.3639,-0.3631,-0.3607,-0.3537,-0.3534,-0.3435,-0.3421,-0.345,-0.3599,-0.3599,-0.3599,-0.3599,0,-0.3023,-0.3067,-0.3185,-0.3218,-0.3278,-0.3379,-0.3445,-0.351,-0.3605,-0.3657,-0.3712,-0.3745,-0.3737,-0.3731,-0.3683,-0.3624,-0.3656,-0.3556,-0.3537,-0.3459,-0.3448,-0.3418,-0.3415,-0.36,-0.36,-0.36,-0.36,0,-0.2943,-0.3031,-0.3096,-0.3219,-0.3251,-0.3283,-0.3411,-0.346,-0.3565,-0.3633,-0.3654,-0.3747,-0.3753,-0.3742,-0.3707,-0.3652,-0.3555,-0.3573,-0.3485,-0.3456,-0.3382,-0.3385,-0.3348,-0.3252,-0.3514,-0.3513,-0.3512,0,-0.2912,-0.2937,-0.305,-0.3077,-0.3128,-0.3202,-0.3254,-0.3398,-0.3457,-0.3624,-0.3641,-0.3707,-0.3726,-0.3693,-0.3629,-0.3568,-0.3513,-0.3428,-0.3386,-0.3379,-0.337,-0.3351,-0.3271,-0.3293,-0.329,-0.3288,-0.3287,0,-0.2824,-0.2859,-0.2905,-0.2961,-0.3013,-0.3082,-0.317,-0.3224,-0.3395,-0.3474,-0.3575,-0.3618,-0.3645,-0.3578,-0.3516,-0.3443,-0.3358,-0.3381,-0.3393,-0.322,-0.3181,-0.3079,-0.3295,-0.3267,-0.3269,-0.3271,-0.3272,-0.3273,-0.2723,-0.2723,-0.2775,-0.2816,-0.2874,-0.2925,-0.2931,-0.3062,-0.3146,-0.3255,-0.3412,-0.348,-0.3505,-0.343,-0.3362,-0.3241,-0.3237,-0.315,-0.3163,-0.3154,-0.3034,-0.3214,-0.3151,-0.3152,-0.3153,-0.3154,-0.3155,0,-0.2581,-0.2597,-0.2628,-0.2664,-0.266,-0.275,-0.2836,-0.2824,-0.2867,-0.3058,-0.3142,-0.3313,-0.3256,-0.3275,-0.3201,-0.3075,-0.2967,-0.2984,-0.2946,-0.2876,-0.3055,-0.3018,-0.2899,-0.2899,-0.2899,-0.2899,-0.2899,-0.2899,-0.2505,-0.2473,-0.2496,-0.243,-0.2451,-0.239,-0.2402,-0.2423,-0.2517,-0.2658,-0.2848,-0.3062,-0.3112,-0.3321,-0.3181,-0.3023,-0.2904,-0.2818,-0.2804,-0.2967,-0.2984,-0.3,-0.2967,-0.2839,-0.2839,-0.2548,-0.2546,-0.2545]},{"header":{"parameterUnit":"m.s-1","parameterCategory":2,"la1":30.2991,"la2":30.254,"lo1":-89.0895,"lo2":-89.0444,"dy":0.0017,"dx":0.0017,"nx":28,"ny":28,"refTime":"2024-12-12T09:00:00:Z","depth":"0","parameterNumber":3,"parameterNumberName":"V-component_of_CURRENTS"},"data":[0,0,0,0,0,0,0,0,0,0,0,0,0,0,0,0,0,0,0,0,0,0,0,0,0,0,0,0,0,0,0,0,0,0,0,0,0,0,0,0,0,0,0,0,0,0,0,0,0,0,0,0,0,0,0,0,0,0,-0.0275,-0.0274,0,-0.0151,-0.015,-0.0148,-0.0067,-0.0067,-0.0067,-0.0066,0.0082,0.0085,0.0089,0,0,0,0,0,0,0,0,0,0,0,0,0,-0.0365,-0.0364,-0.0275,-0.0274,-0.0273,-0.0152,-0.015,-0.0148,-0.0067,-0.0067,-0.0067,-0.0066,0.008,0.0085,0.0089,0,0,0,0,0,0,0,0,0,0,0,0,0,-0.0289,-0.0363,-0.0276,-0.022,-0.0214,-0.0152,-0.0149,-0.0147,-0.0067,-0.0067,-0.0067,-0.0066,0.0079,0.0084,0.009,0.0116,0,0,0.0107,0.0109,0,0,0,0,0,0,0,0,-0.0294,-0.0286,-0.0229,-0.0224,-0.0217,-0.0127,-0.0127,-0.0059,-0.0067,-0.012,-0.0066,-0.0066,0.0012,0.0023,0.0049,0.0123,0.0129,0.0107,0.0111,0.0113,0.0115,0,0,0,0,0,0,0,-0.0299,-0.029,-0.0223,-0.0228,-0.0221,-0.0175,-0.0164,-0.0113,-0.0055,-0.0115,-0.011,-0.0101,0.0016,0.0044,0.0053,0.0131,0.0107,0.0112,0.0115,0.0118,0.0261,0.0261,0,0,0,0,0,0,-0.0324,-0.0296,-0.0227,-0.022,-0.0258,-0.0174,-0.0162,-0.0154,-0.0056,-0.0042,-0.0101,-0.0097,0.0034,0.0047,0.0059,0.0099,0.0113,0.0118,0.0121,0.026,0.0261,0.0261,0,0,0,0,0,0,-0.0327,-0.032,-0.0232,-0.0257,-0.0243,-0.0174,-0.0165,-0.0152,-0.0125,-0.0046,-0.003,-0.0089,0.0035,0.0051,0.0105,0.0105,0.0121,0.0126,0.026,0.026,0.0261,0.0178,0,0,0,0,0,0,-0.033,-0.0321,-0.0326,-0.0259,-0.0243,-0.0207,-0.0165,-0.015,-0.0122,-0.0115,-0.0031,-0.0016,0.0036,0.0096,0.011,0.0113,0.013,0.0259,0.026,0.0261,0.018,0.0176,0.0172,0,0,0,0,0,-0.0334,-0.0348,-0.0327,-0.0319,-0.0251,-0.0208,-0.0196,-0.0142,-0.0122,-0.0116,-0.0054,-0.0019,0.0112,0.01,0.0117,0.0122,0.0259,0.026,0.0261,0.0182,0.0177,0.0172,0,0,0,0,0,0,-0.039,-0.0339,-0.0315,-0.0313,-0.0269,-0.0196,-0.0189,-0.0151,-0.0096,-0.0091,-0.0014,0.0005,0.0052,0.01,0.0086,0.0168,0.0192,0.0196,0.0126,0.0122,0.0118,0.0091,0.0135,0,0,0,0,0,-0.0406,-0.0403,-0.0342,-0.0342,-0.0325,-0.0258,-0.0235,-0.0199,-0.0142,-0.0117,-0.0056,0.0011,0.0071,0.0104,0.016,0.0203,0.0256,0.022,0.0215,0.0212,0.0203,0.0288,0.029,0.0265,0.0265,0.0265,0,0,-0.0429,-0.0401,-0.0399,-0.0354,-0.0316,-0.0299,-0.0243,-0.0217,-0.0195,-0.011,-0.0067,-0.0004,0.0079,0.0128,0.0154,0.0168,0.0247,0.0213,0.0209,0.0202,0.0289,0.0291,0.0293,0.0266,0.0266,0.0265,0,0,-0.0478,-0.0448,-0.0462,-0.043,-0.0384,-0.0338,-0.0336,-0.0266,-0.0227,-0.0179,-0.011,-0.0047,0.0038,0.0104,0.0147,0.0156,0.0219,0.0173,0.0135,0.0217,0.0219,0.0222,0.0286,0.0295,0.0174,0.0174,0.0174,0,-0.051,-0.0515,-0.046,-0.0462,-0.0444,-0.0363,-0.0369,-0.0315,-0.0235,-0.0202,-0.018,-0.0036,0.0029,0.0107,0.0109,0.0146,0.0194,0.0142,0.021,0.0214,0.0218,0.0283,0.0294,0.017,0.0171,0.0171,0.0171,0,-0.0564,-0.0566,-0.0572,-0.0546,-0.0517,-0.051,-0.0433,-0.0393,-0.0339,-0.0278,-0.0196,-0.0097,-0.001,0.0023,0.0067,0.0132,0.0156,0.0189,0.0215,0.0215,0.0284,0.0297,0.0165,0.0166,0.0167,0.0168,0,0,-0.0638,-0.0618,-0.0619,-0.0625,-0.0562,-0.0547,-0.0504,-0.0439,-0.0409,-0.0318,-0.0268,-0.0157,-0.0096,-0.0043,0.0034,0.0102,0.0172,0.0145,0.0151,0.0194,0.034,0.0401,0.0422,0.0214,0.0216,0.0218,0.0373,0,-0.0698,-0.0739,-0.0696,-0.0717,-0.073,-0.064,-0.0608,-0.0535,-0.0454,-0.0382,-0.0257,-0.0184,-0.012,-0.0079,0.0002,0.0136,0.0204,0.0126,0.0346,0.0352,0.0395,0.0438,0.051,0.0658,0.0386,0.0389,0.039,0,-0.0762,-0.0782,-0.0827,-0.0809,-0.0804,-0.0794,-0.0724,-0.0682,-0.0551,-0.0487,-0.0378,-0.0274,-0.0143,-0.01,0.0128,0.0074,0.0189,0.0288,0.0298,0.0391,0.0438,0.0618,0.0693,0.0935,0.0411,0.0409,0.0408,0,-0.0855,-0.0867,-0.0911,-0.0906,-0.087,-0.0862,-0.0829,-0.0722,-0.0685,-0.0548,-0.0501,-0.0325,-0.0231,-0.006,0.0157,0.0143,0.0399,0.0417,0.058,0.0585,0.0708,0.0721,0.1034,0.056,0.056,0.0559,0.0559,0,-0.0938,-0.0968,-0.0962,-0.0988,-0.1027,-0.0959,-0.0959,-0.0891,-0.0791,-0.0748,-0.0568,-0.0484,-0.0218,-0.0031,0.0146,0.0416,0.0405,0.0583,0.0639,0.0682,0.069,0.0956,0.1028,0.0565,0.0564,0.0563,0.0562,0,-0.103,-0.1026,-0.1079,-0.1075,-0.1077,-0.1104,-0.1066,-0.1057,-0.0942,-0.0876,-0.0836,-0.0589,-0.0321,-0.0052,0.0251,0.0413,0.0802,0.0739,0.0763,0.0818,0.1188,0.125,0.1567,0.168,0.0952,0.0955,0.0957,0,-0.1082,-0.1122,-0.1165,-0.1207,-0.1211,-0.1232,-0.1244,-0.1152,-0.1126,-0.0936,-0.0909,-0.063,-0.0409,0.0077,0.0432,0.0789,0.0936,0.1028,0.1022,0.1239,0.135,0.1382,0.1455,0.1154,0.1158,0.116,0.1163,0,-0.1177,-0.1191,-0.1237,-0.1335,-0.1377,-0.1408,-0.1407,-0.1411,-0.1281,-0.1186,-0.0999,-0.0801,-0.0278,0.02,0.0677,0.0888,0.1212,0.1098,0.1342,0.1552,0.1592,0.1716,0.1001,0.1189,0.1187,0.1185,0.1183,0.1182,-0.1237,-0.1302,-0.1371,-0.1457,-0.1516,-0.1565,-0.1592,-0.1547,-0.1491,-0.1311,-0.1095,-0.0748,-0.0019,0.0703,0.0957,0.1544,0.1453,0.1709,0.177,0.1786,0.1897,0.1224,0.1458,0.1457,0.1456,0.1455,0.1454,0,-0.1311,-0.1383,-0.1484,-0.1581,-0.167,-0.1662,-0.1685,-0.1674,-0.1611,-0.136,-0.1125,-0.0319,0.0399,0.1056,0.1893,0.2201,0.2248,0.2351,0.2442,0.2484,0.1936,0.1949,0.2278,0.2278,0.2278,0.2277,0.2277,0.2277,-0.1351,-0.1471,-0.1531,-0.1694,-0.1758,-0.1838,-0.1854,-0.1797,-0.1637,-0.1223,-0.0763,-0.0376,0.062,0.2002,0.2781,0.2844,0.3076,0.306,0.316,0.2818,0.2763,0.2711,0.2748,0.3239,0.324,0.3706,0.371,0.3714]}],[{"header":{"parameterUnit":"m.s-1","parameterCategory":2,"la1":30.2991,"la2":30.254,"lo1":-89.0895,"lo2":-89.0444,"dy":0.0017,"dx":0.0017,"nx":28,"ny":28,"refTime":"2024-12-12T09:00:00:Z","depth":"2","parameterNumber":2,"parameterNumberName":"U-component_of_CURRENTS"},"data":[0,0,0,0,0,0,0,0,0,0,0,0,0,0,0,0,0,0,0,0,0,0,0,0,0,0,0,0,0,0,0,0,0,0,0,0,0,0,0,0,0,0,0,0,0,0,0,0,0,0,0,0,0,0,0,0,0,0,-0.3039,-0.304,0,-0.3071,-0.3071,-0.3071,-0.3039,-0.3038,-0.3037,-0.3036,-0.2988,-0.2987,-0.2987,0,0,0,0,0,0,0,0,0,0,0,0,0,-0.2936,-0.2938,-0.3039,-0.304,-0.3041,-0.3071,-0.3071,-0.3071,-0.3039,-0.3038,-0.3037,-0.3036,-0.2988,-0.2987,-0.2987,0,0,0,0,0,0,0,0,0,0,0,0,0,-0.2972,-0.2938,-0.3039,-0.3031,-0.3031,-0.3071,-0.3071,-0.3071,-0.3039,-0.3038,-0.3037,-0.3035,-0.2988,-0.2987,-0.2987,-0.301,0,0,-0.2985,-0.2984,0,0,0,0,0,0,0,0,-0.297,-0.2975,-0.3031,-0.3032,-0.3032,-0.3053,-0.3017,-0.3048,-0.304,-0.3032,-0.3036,-0.3035,-0.3005,-0.3003,-0.3008,-0.3008,-0.3006,-0.2985,-0.2984,-0.2984,-0.2984,0,0,0,0,0,0,0,-0.2968,-0.2974,-0.3048,-0.3032,-0.3033,-0.3021,-0.3025,-0.3023,-0.3022,-0.3033,-0.3031,-0.3041,-0.3004,-0.3009,-0.3007,-0.3005,-0.2985,-0.2984,-0.2984,-0.2983,-0.3022,-0.3023,0,0,0,0,0,0,-0.2974,-0.2972,-0.3047,-0.3049,-0.3001,-0.3025,-0.3028,-0.3044,-0.3023,-0.3021,-0.3043,-0.304,-0.3011,-0.3007,-0.3005,-0.3037,-0.2984,-0.2983,-0.2983,-0.302,-0.3022,-0.3024,0,0,0,0,0,0,-0.2972,-0.2981,-0.3046,-0.3013,-0.3021,-0.3028,-0.3047,-0.3046,-0.3048,-0.3033,-0.3027,-0.3045,-0.301,-0.3006,-0.3012,-0.3034,-0.2983,-0.2982,-0.3019,-0.3021,-0.3023,-0.3097,0,0,0,0,0,0,-0.2969,-0.298,-0.2988,-0.3015,-0.3024,-0.3078,-0.3048,-0.3048,-0.3058,-0.3055,-0.3033,-0.3027,-0.3008,-0.3013,-0.3011,-0.3032,-0.2982,-0.3017,-0.302,-0.3022,-0.3093,-0.3102,-0.3109,0,0,0,0,0,-0.2965,-0.2987,-0.2989,-0.2997,-0.3037,-0.308,-0.3083,-0.308,-0.306,-0.3073,-0.3058,-0.3028,-0.3028,-0.3014,-0.3011,-0.3033,-0.3016,-0.3019,-0.3022,-0.3089,-0.31,-0.3109,0,0,0,0,0,0,-0.2943,-0.2987,-0.2989,-0.3021,-0.3052,-0.3075,-0.3085,-0.3085,-0.3085,-0.3075,-0.3048,-0.3043,-0.3056,-0.3038,-0.3023,-0.3052,-0.3016,-0.3019,-0.3069,-0.3078,-0.3086,-0.309,-0.2981,0,0,0,0,0,-0.2946,-0.297,-0.3013,-0.3035,-0.3053,-0.3069,-0.3082,-0.3088,-0.3096,-0.3094,-0.3082,-0.307,-0.3071,-0.3068,-0.3064,-0.3083,-0.3068,-0.3095,-0.3103,-0.311,-0.3112,-0.3113,-0.3121,-0.3034,-0.3034,-0.3034,0,0,-0.294,-0.2969,-0.298,-0.3032,-0.3049,-0.309,-0.3072,-0.3103,-0.313,-0.3089,-0.311,-0.3097,-0.3082,-0.3103,-0.3107,-0.3088,-0.313,-0.3114,-0.312,-0.3118,-0.3117,-0.3126,-0.3133,-0.3036,-0.3036,-0.3036,0,0,-0.2952,-0.2972,-0.3001,-0.3037,-0.308,-0.31,-0.3112,-0.3146,-0.3152,-0.318,-0.3156,-0.3162,-0.316,-0.3162,-0.3159,-0.3211,-0.3172,-0.3205,-0.3248,-0.325,-0.3257,-0.3263,-0.3268,-0.3273,-0.3209,-0.3209,-0.3209,0,-0.2941,-0.2989,-0.3015,-0.306,-0.309,-0.3108,-0.3151,-0.3173,-0.3202,-0.3216,-0.3193,-0.3208,-0.3192,-0.3223,-0.3237,-0.323,-0.3219,-0.3212,-0.326,-0.3266,-0.327,-0.3273,-0.3279,-0.3213,-0.3213,-0.3212,-0.3212,0,-0.2981,-0.3023,-0.3045,-0.3107,-0.3144,-0.3185,-0.323,-0.3259,-0.3264,-0.3282,-0.3311,-0.3298,-0.3302,-0.3305,-0.3283,-0.3315,-0.3294,-0.327,-0.3235,-0.3284,-0.3284,-0.3288,-0.3219,-0.3217,-0.3216,-0.3215,0,0,-0.2942,-0.3051,-0.3056,-0.3095,-0.3174,-0.3205,-0.3267,-0.3326,-0.3357,-0.3377,-0.3412,-0.3419,-0.3403,-0.3399,-0.3379,-0.3381,-0.3408,-0.3339,-0.3337,-0.3342,-0.3412,-0.3362,-0.3362,-0.3385,-0.3386,-0.3387,-0.3403,0,-0.296,-0.3044,-0.31,-0.3174,-0.3221,-0.3275,-0.3332,-0.3385,-0.3415,-0.3455,-0.3458,-0.3476,-0.3443,-0.3439,-0.3442,-0.3413,-0.342,-0.3406,-0.3365,-0.3364,-0.3312,-0.3365,-0.3073,-0.306,-0.3407,-0.3408,-0.3408,0,-0.2971,-0.303,-0.3109,-0.3213,-0.3238,-0.3285,-0.3368,-0.3422,-0.3493,-0.3516,-0.3545,-0.3542,-0.3561,-0.3513,-0.3507,-0.3495,-0.346,-0.3437,-0.3436,-0.3363,-0.3321,-0.3064,-0.3053,-0.3414,-0.3414,-0.3413,-0.3413,0,-0.2914,-0.303,-0.3088,-0.3125,-0.3248,-0.3287,-0.3343,-0.3428,-0.3475,-0.3545,-0.3575,-0.3603,-0.3602,-0.358,-0.3532,-0.3518,-0.3512,-0.3488,-0.3418,-0.3414,-0.3145,-0.3116,-0.3482,-0.3482,-0.3481,-0.3481,-0.3481,0,-0.2906,-0.295,-0.3063,-0.3096,-0.3155,-0.3253,-0.3319,-0.3383,-0.3477,-0.3527,-0.3585,-0.3616,-0.3612,-0.3608,-0.3562,-0.3505,-0.3537,-0.3437,-0.3418,-0.3165,-0.3139,-0.3422,-0.3415,-0.3482,-0.3482,-0.3482,-0.3482,0,-0.283,-0.2915,-0.2978,-0.3098,-0.313,-0.3162,-0.3287,-0.3334,-0.344,-0.3506,-0.3528,-0.3621,-0.3628,-0.3619,-0.3587,-0.3533,-0.349,-0.3455,-0.3167,-0.3115,-0.3387,-0.3384,-0.3399,-0.3397,-0.3396,-0.3395,-0.3394,0,-0.28,-0.2825,-0.2935,-0.2961,-0.3011,-0.3085,-0.3135,-0.3276,-0.3333,-0.3497,-0.3513,-0.358,-0.3594,-0.3563,-0.3463,-0.3394,-0.3463,-0.31,-0.3031,-0.34,-0.3381,-0.3379,-0.3378,-0.2701,-0.2695,-0.269,-0.2685,0,-0.2716,-0.275,-0.2795,-0.285,-0.29,-0.2966,-0.3052,-0.3103,-0.327,-0.3342,-0.3438,-0.3476,-0.3469,-0.3279,-0.3205,-0.3116,-0.3095,-0.2995,-0.3428,-0.2787,-0.2749,-0.2729,-0.2748,-0.2638,-0.2643,-0.2646,-0.2649,-0.2651,-0.2619,-0.2618,-0.2668,-0.2708,-0.2764,-0.2811,-0.2815,-0.2922,-0.2993,-0.304,-0.3219,-0.3162,-0.3142,-0.2892,-0.2771,-0.2659,-0.2868,-0.2711,-0.2723,-0.2743,-0.2679,-0.2642,-0.2499,-0.2502,-0.2506,-0.2509,-0.2511,0,-0.2472,-0.2495,-0.2524,-0.2559,-0.2542,-0.2642,-0.272,-0.2662,-0.2667,-0.2748,-0.2778,-0.251,-0.2425,-0.2419,-0.2188,-0.2173,-0.2104,-0.2074,-0.1964,-0.2013,-0.2056,-0.1954,-0.1583,-0.158,-0.1578,-0.1576,0,0,-0.2396,-0.2359,-0.2379,-0.2307,-0.2335,-0.225,-0.2258,-0.2194,-0.2186,-0.2085,-0.2053,-0.2235,-0.2329,-0.1936,-0.1861,-0.1692,-0.1823,-0.1601,-0.2339,-0.2255,-0.2295,-0.2414,-0.2312,0,0,0,0,0]},{"header":{"parameterUnit":"m.s-1","parameterCategory":2,"la1":30.2991,"la2":30.254,"lo1":-89.0895,"lo2":-89.0444,"dy":0.0017,"dx":0.0017,"nx":28,"ny":28,"refTime":"2024-12-12T09:00:00:Z","depth":"2","parameterNumber":3,"parameterNumberName":"V-component_of_CURRENTS"},"data":[0,0,0,0,0,0,0,0,0,0,0,0,0,0,0,0,0,0,0,0,0,0,0,0,0,0,0,0,0,0,0,0,0,0,0,0,0,0,0,0,0,0,0,0,0,0,0,0,0,0,0,0,0,0,0,0,0,0,-0.0258,-0.0257,0,-0.0137,-0.0135,-0.0134,-0.0055,-0.0054,-0.0054,-0.0054,0.0091,0.0095,0.0098,0,0,0,0,0,0,0,0,0,0,0,0,0,-0.0345,-0.0344,-0.0258,-0.0257,-0.0256,-0.0137,-0.0135,-0.0133,-0.0055,-0.0054,-0.0054,-0.0054,0.009,0.0094,0.0099,0,0,0,0,0,0,0,0,0,0,0,0,0,-0.0272,-0.0344,-0.0258,-0.0204,-0.0198,-0.0137,-0.0135,-0.0133,-0.0055,-0.0054,-0.0054,-0.0054,0.0089,0.0094,0.0099,0.0125,0,0,0.0116,0.0118,0,0,0,0,0,0,0,0,-0.0276,-0.0268,-0.0213,-0.0208,-0.0201,-0.0113,-0.0113,-0.0046,-0.0055,-0.0106,-0.0054,-0.0053,0.0023,0.0034,0.0059,0.0132,0.0138,0.0116,0.012,0.0122,0.0124,0,0,0,0,0,0,0,-0.0281,-0.0273,-0.0207,-0.0212,-0.0205,-0.016,-0.0149,-0.0099,-0.0043,-0.0102,-0.0097,-0.0087,0.0027,0.0054,0.0063,0.014,0.0116,0.0121,0.0124,0.0127,0.0268,0.0268,0,0,0,0,0,0,-0.0306,-0.0278,-0.0211,-0.0204,-0.0242,-0.0159,-0.0147,-0.0139,-0.0044,-0.003,-0.0088,-0.0084,0.0045,0.0057,0.0069,0.0109,0.0122,0.0127,0.013,0.0267,0.0268,0.0268,0,0,0,0,0,0,-0.0309,-0.0301,-0.0216,-0.024,-0.0227,-0.0159,-0.015,-0.0137,-0.0112,-0.0034,-0.0019,-0.0076,0.0045,0.0061,0.0114,0.0115,0.0129,0.0134,0.0267,0.0267,0.0268,0.0187,0,0,0,0,0,0,-0.0312,-0.0303,-0.0308,-0.0242,-0.0226,-0.0191,-0.015,-0.0135,-0.0108,-0.0102,-0.0019,-0.0005,0.0047,0.0105,0.0119,0.0123,0.0139,0.0266,0.0267,0.0268,0.0189,0.0185,0.0181,0,0,0,0,0,-0.0315,-0.0329,-0.0309,-0.0301,-0.0235,-0.0192,-0.018,-0.0128,-0.0108,-0.0102,-0.0041,-0.0007,0.0121,0.011,0.0126,0.0131,0.0265,0.0267,0.0268,0.0191,0.0185,0.0181,0,0,0,0,0,0,-0.037,-0.032,-0.0297,-0.0295,-0.0252,-0.018,-0.0174,-0.0136,-0.0083,-0.0078,-0.0002,0.0016,0.0063,0.011,0.0095,0.0177,0.02,0.0204,0.0135,0.0131,0.0127,0.0101,0.0143,0,0,0,0,0,-0.0386,-0.0383,-0.0324,-0.0323,-0.0306,-0.0241,-0.0219,-0.0183,-0.0127,-0.0103,-0.0043,0.0023,0.0081,0.0114,0.0169,0.0211,0.0262,0.0228,0.0223,0.022,0.0211,0.0294,0.0296,0.0272,0.0272,0.0272,0,0,-0.0408,-0.0381,-0.0379,-0.0335,-0.0298,-0.0281,-0.0226,-0.0201,-0.0179,-0.0097,-0.0054,0.0007,0.0089,0.0137,0.0163,0.0176,0.0254,0.0221,0.0217,0.021,0.0295,0.0298,0.03,0.0272,0.0272,0.0272,0,0,-0.0457,-0.0427,-0.0441,-0.041,-0.0365,-0.0319,-0.0317,-0.0249,-0.0211,-0.0164,-0.0096,-0.0035,0.0049,0.0114,0.0156,0.0166,0.0227,0.0182,0.0145,0.0225,0.0228,0.023,0.0292,0.0301,0.0183,0.0183,0.0183,0,-0.0488,-0.0492,-0.0438,-0.0441,-0.0423,-0.0344,-0.035,-0.0297,-0.0218,-0.0186,-0.0165,-0.0024,0.004,0.0117,0.0119,0.0156,0.0203,0.0152,0.0218,0.0222,0.0226,0.0289,0.03,0.0179,0.018,0.018,0.0181,0,-0.0541,-0.0542,-0.0548,-0.0522,-0.0494,-0.0487,-0.0412,-0.0373,-0.032,-0.0261,-0.018,-0.0083,0.0002,0.0034,0.0078,0.0142,0.0165,0.0198,0.0223,0.0223,0.029,0.0303,0.0174,0.0175,0.0177,0.0177,0,0,-0.0613,-0.0593,-0.0594,-0.06,-0.0538,-0.0524,-0.0481,-0.0418,-0.039,-0.03,-0.0251,-0.0142,-0.0082,-0.003,0.0045,0.0113,0.0181,0.0155,0.0161,0.0202,0.0345,0.0401,0.0421,0.0223,0.0224,0.0226,0.0377,0,-0.0671,-0.0711,-0.0669,-0.069,-0.0703,-0.0615,-0.0584,-0.0512,-0.0433,-0.0363,-0.024,-0.0169,-0.0106,-0.0066,0.0014,0.0146,0.0212,0.0136,0.035,0.0356,0.0395,0.0437,0.0356,0.0487,0.039,0.0392,0.0393,0,-0.0735,-0.0754,-0.0798,-0.0781,-0.0776,-0.0767,-0.0699,-0.0658,-0.0529,-0.0467,-0.036,-0.0258,-0.013,-0.0086,0.0136,0.0084,0.0197,0.0294,0.0303,0.0391,0.0437,0.0475,0.0515,0.0415,0.0414,0.0412,0.041,0,-0.0826,-0.0838,-0.0881,-0.0876,-0.0842,-0.0834,-0.0802,-0.0698,-0.0662,-0.0528,-0.0482,-0.031,-0.0217,-0.0049,0.0163,0.0151,0.04,0.0419,0.0575,0.058,0.0573,0.0574,0.056,0.0559,0.0559,0.0559,0.0558,0,-0.0908,-0.0937,-0.0932,-0.0958,-0.0996,-0.093,-0.0931,-0.0865,-0.0768,-0.0727,-0.0549,-0.0468,-0.0206,-0.0023,0.0152,0.0414,0.0405,0.0578,0.0632,0.0543,0.054,0.0525,0.0519,0.0564,0.0563,0.0562,0.0561,0,-0.0999,-0.0995,-0.1048,-0.1044,-0.1046,-0.1073,-0.1037,-0.1029,-0.0917,-0.0853,-0.0815,-0.0573,-0.0313,-0.0048,0.0249,0.0408,0.0643,0.0727,0.0599,0.0637,0.0766,0.0754,0.0925,0.0929,0.0932,0.0934,0.0936,0,-0.105,-0.109,-0.1133,-0.1175,-0.1179,-0.1201,-0.1214,-0.1124,-0.11,-0.0914,-0.0889,-0.0618,-0.0405,0.0069,0.0389,0.0732,0.0729,0.0847,0.0822,0.0773,0.0808,0.0791,0.0776,0.0774,0.0774,0.0775,0.0775,0,-0.1145,-0.1159,-0.1205,-0.1303,-0.1344,-0.1376,-0.1376,-0.138,-0.1254,-0.1162,-0.0983,-0.0793,-0.031,0.0073,0.0529,0.0713,0.0793,0.087,0.0872,0.0696,0.0644,0.0673,0.0661,0.0779,0.0779,0.0779,0.0778,0.0778,-0.1205,-0.1269,-0.1338,-0.1423,-0.1483,-0.1532,-0.1559,-0.1513,-0.146,-0.1287,-0.1089,-0.0777,-0.0372,0.0273,0.0593,0.0886,0.0897,0.0951,0.0943,0.0937,0.0895,0.0851,0.1016,0.1017,0.1018,0.1019,0.1019,0,-0.1275,-0.135,-0.1451,-0.1547,-0.163,-0.1628,-0.1652,-0.1626,-0.1561,-0.1353,-0.1135,-0.0691,-0.0229,0.0194,0.0657,0.0954,0.091,0.0993,0.0864,0.0859,0.0855,0.0803,0.0904,0.0904,0.0905,0.0906,0,0,-0.1315,-0.1431,-0.1489,-0.1648,-0.1717,-0.1786,-0.1802,-0.172,-0.158,-0.1361,-0.1124,-0.0775,-0.0249,0.0054,0.0429,0.0671,0.0679,0.0688,0.0746,0.0543,0.0534,0.0798,0.0711,0,0,0,0,0]}],[{"header":{"parameterUnit":"m.s-1","parameterCategory":2,"la1":30.2991,"la2":30.254,"lo1":-89.0895,"lo2":-89.0444,"dy":0.0017,"dx":0.0017,"nx":28,"ny":28,"refTime":"2024-12-12T09:00:00:Z","depth":"4","parameterNumber":2,"parameterNumberName":"U-component_of_CURRENTS"},"data":[0,0,0,0,0,0,0,0,0,0,0,0,0,0,0,0,0,0,0,0,0,0,0,0,0,0,0,0,0,0,0,0,0,0,0,0,0,0,0,0,0,0,0,0,0,0,0,0,0,0,0,0,0,0,0,0,0,0,-0.1997,-0.1998,0,-0.2082,-0.2082,-0.2083,-0.213,-0.213,-0.213,-0.2131,-0.2189,-0.219,-0.2191,0,0,0,0,0,0,0,0,0,0,0,0,0,-0.1865,-0.1867,-0.1997,-0.1998,-0.1999,-0.2081,-0.2082,-0.2083,-0.213,-0.213,-0.2131,-0.2131,-0.2188,-0.219,-0.2191,0,0,0,0,0,0,0,0,0,0,0,0,0,-0.1931,-0.1868,-0.1996,-0.2035,-0.2039,-0.2081,-0.2082,-0.2083,-0.2129,-0.213,-0.2131,-0.2131,-0.2188,-0.219,-0.2192,-0.2191,0,0,-0.2197,-0.2198,0,0,0,0,0,0,0,0,-0.1927,-0.1935,-0.2028,-0.2032,-0.2037,-0.2098,-0.2058,-0.2119,-0.2129,-0.2092,-0.2131,-0.2131,-0.2157,-0.2162,-0.2173,-0.2194,-0.2196,-0.2197,-0.2198,-0.2199,-0.2199,0,0,0,0,0,0,0,-0.1922,-0.1932,-0.2027,-0.2029,-0.2035,-0.2044,-0.2054,-0.2069,-0.2118,-0.2095,-0.21,-0.2113,-0.216,-0.2171,-0.2174,-0.2197,-0.2197,-0.2199,-0.22,-0.22,-0.2316,-0.2318,0,0,0,0,0,0,-0.1918,-0.1928,-0.2025,-0.203,-0.1986,-0.2046,-0.2057,-0.2076,-0.2118,-0.2126,-0.2113,-0.2115,-0.2168,-0.2172,-0.2177,-0.2272,-0.2199,-0.2201,-0.2202,-0.2314,-0.2316,-0.2318,0,0,0,0,0,0,-0.1915,-0.1926,-0.2021,-0.1983,-0.1996,-0.2048,-0.2069,-0.2077,-0.2123,-0.2133,-0.214,-0.2155,-0.2168,-0.2174,-0.2229,-0.2271,-0.2201,-0.2203,-0.2311,-0.2314,-0.2317,-0.2403,0,0,0,0,0,0,-0.1911,-0.1924,-0.1951,-0.1983,-0.1998,-0.2074,-0.2069,-0.2078,-0.213,-0.2135,-0.217,-0.2174,-0.2169,-0.2227,-0.2231,-0.2272,-0.2204,-0.2309,-0.2313,-0.2316,-0.2398,-0.2409,-0.2418,0,0,0,0,0,-0.1906,-0.1936,-0.1952,-0.1965,-0.2028,-0.2075,-0.2085,-0.2121,-0.2132,-0.2162,-0.219,-0.2175,-0.2253,-0.223,-0.2234,-0.2277,-0.2307,-0.2312,-0.2316,-0.2393,-0.2406,-0.2418,0,0,0,0,0,0,-0.1894,-0.1945,-0.1963,-0.2008,-0.2052,-0.2085,-0.2121,-0.2141,-0.2187,-0.2201,-0.2202,-0.2209,-0.2271,-0.2264,-0.2238,-0.2322,-0.2277,-0.2282,-0.2334,-0.2346,-0.2356,-0.2351,-0.2206,0,0,0,0,0,-0.1903,-0.1941,-0.1987,-0.2027,-0.2053,-0.2092,-0.2122,-0.2149,-0.2186,-0.2209,-0.2235,-0.2261,-0.2287,-0.231,-0.2329,-0.2377,-0.2358,-0.2407,-0.2417,-0.2426,-0.2426,-0.2434,-0.2444,-0.2333,-0.2333,-0.2333,0,0,-0.191,-0.1944,-0.1967,-0.2028,-0.2064,-0.2112,-0.2112,-0.2171,-0.2219,-0.2206,-0.2287,-0.23,-0.2307,-0.2363,-0.239,-0.2368,-0.2451,-0.2432,-0.2439,-0.2434,-0.2439,-0.245,-0.2459,-0.2336,-0.2335,-0.2335,0,0,-0.1932,-0.1975,-0.2012,-0.2056,-0.2122,-0.2149,-0.2174,-0.2233,-0.2272,-0.2341,-0.2344,-0.2388,-0.2434,-0.2449,-0.2458,-0.2535,-0.2502,-0.2546,-0.2598,-0.2606,-0.2615,-0.2622,-0.2622,-0.2629,-0.2553,-0.2553,-0.2553,0,-0.194,-0.1993,-0.2032,-0.2081,-0.2125,-0.217,-0.2223,-0.2268,-0.2341,-0.2377,-0.2382,-0.2461,-0.2472,-0.2527,-0.2556,-0.2559,-0.2552,-0.2551,-0.2618,-0.2625,-0.2631,-0.2629,-0.2635,-0.2558,-0.2557,-0.2557,-0.2557,0,-0.1979,-0.204,-0.2069,-0.2145,-0.2197,-0.2253,-0.2317,-0.2379,-0.2429,-0.2467,-0.2548,-0.2568,-0.2609,-0.2626,-0.2616,-0.2673,-0.265,-0.2627,-0.2584,-0.2647,-0.2641,-0.2646,-0.2565,-0.2563,-0.2562,-0.256,0,0,-0.1945,-0.2072,-0.2086,-0.2137,-0.224,-0.228,-0.2372,-0.2456,-0.2515,-0.2586,-0.2653,-0.2707,-0.2718,-0.2728,-0.2728,-0.2741,-0.2784,-0.271,-0.2708,-0.2703,-0.28,-0.2622,-0.261,-0.2773,-0.2774,-0.2775,-0.2782,0,-0.1967,-0.2063,-0.2127,-0.2228,-0.2281,-0.2364,-0.2442,-0.2526,-0.2594,-0.2671,-0.2709,-0.2769,-0.2756,-0.2782,-0.2798,-0.2787,-0.2799,-0.2784,-0.2744,-0.2743,-0.2571,-0.261,-0.2779,-0.2785,-0.2786,-0.2787,-0.2787,0,-0.1972,-0.2041,-0.2142,-0.2272,-0.2305,-0.2378,-0.2503,-0.2579,-0.269,-0.2745,-0.2811,-0.2838,-0.289,-0.2857,-0.2877,-0.2869,-0.2844,-0.2827,-0.2826,-0.2628,-0.2572,-0.2706,-0.2795,-0.2795,-0.2794,-0.2793,-0.2793,0,-0.1904,-0.2046,-0.2129,-0.2175,-0.2328,-0.2398,-0.248,-0.2603,-0.2668,-0.2789,-0.2838,-0.2904,-0.2933,-0.293,-0.2903,-0.2899,-0.2896,-0.2883,-0.2701,-0.2689,-0.281,-0.2802,-0.2886,-0.2886,-0.2886,-0.2886,-0.2886,0,-0.1877,-0.1946,-0.2112,-0.2155,-0.2253,-0.2374,-0.2483,-0.2572,-0.2699,-0.2757,-0.2864,-0.2894,-0.2951,-0.2955,-0.2926,-0.2815,-0.2915,-0.2706,-0.2675,-0.2848,-0.2844,-0.2814,-0.2805,-0.2886,-0.2886,-0.2886,-0.2886,0,-0.178,-0.1896,-0.1992,-0.2166,-0.2224,-0.2289,-0.2466,-0.2527,-0.267,-0.2746,-0.2785,-0.2896,-0.2899,-0.2924,-0.2912,-0.2815,-0.2749,-0.2684,-0.2871,-0.2851,-0.2537,-0.2534,-0.2489,-0.2483,-0.2478,-0.2473,-0.2469,0,-0.1736,-0.1779,-0.1964,-0.2017,-0.2103,-0.2228,-0.2302,-0.248,-0.2535,-0.271,-0.2712,-0.2792,-0.2836,-0.2674,-0.2728,-0.2663,-0.2625,-0.2578,-0.2554,-0.2521,-0.2496,-0.2501,-0.2504,-0.2461,-0.246,-0.2458,-0.2457,0,-0.1633,-0.1714,-0.1789,-0.1896,-0.1991,-0.2085,-0.2205,-0.223,-0.2412,-0.257,-0.2563,-0.2563,-0.2562,-0.2545,-0.2507,-0.2461,-0.2603,-0.2521,-0.2532,-0.251,-0.2486,-0.2467,-0.2477,-0.2438,-0.2441,-0.2443,-0.2444,0,-0.1546,-0.1564,-0.1666,-0.1742,-0.185,-0.1891,-0.1992,-0.2055,-0.2134,-0.2333,-0.232,-0.2413,-0.2527,-0.2439,-0.2405,-0.2346,-0.2314,-0.2228,-0.2253,-0.2275,-0.2199,-0.2137,-0.1948,0,0,0,0,0,-0.1441,-0.1442,-0.1501,-0.1573,-0.1671,-0.1731,-0.1893,-0.1999,-0.2178,-0.2106,-0.2211,-0.2202,-0.2174,-0.2225,-0.2116,-0.2309,-0.2321,-0.2174,-0.2235,-0.2335,-0.2356,-0.2286,0,0,0,0,0,0,-0.1371,-0.1413,-0.1435,-0.1403,-0.1417,-0.1504,-0.1599,-0.1737,-0.1716,-0.1906,-0.1897,-0.2043,-0.2043,-0.2182,-0.2056,-0.2071,-0.206,-0.2245,-0.2239,-0.2323,-0.2342,-0.2359,-0.2295,0,0,0,0,0]},{"header":{"parameterUnit":"m.s-1","parameterCategory":2,"la1":30.2991,"la2":30.254,"lo1":-89.0895,"lo2":-89.0444,"dy":0.0017,"dx":0.0017,"nx":28,"ny":28,"refTime":"2024-12-12T09:00:00:Z","depth":"4","parameterNumber":3,"parameterNumberName":"V-component_of_CURRENTS"},"data":[0,0,0,0,0,0,0,0,0,0,0,0,0,0,0,0,0,0,0,0,0,0,0,0,0,0,0,0,0,0,0,0,0,0,0,0,0,0,0,0,0,0,0,0,0,0,0,0,0,0,0,0,0,0,0,0,0,0,-0.017,-0.017,0,-0.009,-0.0089,-0.0088,-0.0033,-0.0033,-0.0033,-0.0032,0.008,0.0082,0.0085,0,0,0,0,0,0,0,0,0,0,0,0,0,-0.0219,-0.0219,-0.0171,-0.017,-0.0169,-0.009,-0.0089,-0.0087,-0.0033,-0.0033,-0.0033,-0.0032,0.0079,0.0082,0.0085,0,0,0,0,0,0,0,0,0,0,0,0,0,-0.0172,-0.0219,-0.0171,-0.0134,-0.013,-0.009,-0.0089,-0.0087,-0.0033,-0.0033,-0.0033,-0.0032,0.0078,0.0082,0.0086,0.0107,0,0,0.0099,0.0101,0,0,0,0,0,0,0,0,-0.0175,-0.017,-0.014,-0.0137,-0.0132,-0.0073,-0.0065,-0.0021,-0.0033,-0.0067,-0.0032,-0.0032,0.003,0.0038,0.0055,0.0112,0.0117,0.0099,0.0102,0.0104,0.0105,0,0,0,0,0,0,0,-0.0178,-0.0173,-0.0136,-0.014,-0.0135,-0.0102,-0.0095,-0.0056,-0.0019,-0.0064,-0.0061,-0.0056,0.0032,0.0051,0.0059,0.0119,0.0099,0.0103,0.0105,0.0107,0.0222,0.0222,0,0,0,0,0,0,-0.0197,-0.0177,-0.0139,-0.0134,-0.0156,-0.0102,-0.0094,-0.009,-0.002,-0.001,-0.0056,-0.0054,0.0044,0.0053,0.0063,0.0095,0.0104,0.0108,0.011,0.0221,0.0222,0.0222,0,0,0,0,0,0,-0.0198,-0.0194,-0.0142,-0.0155,-0.0147,-0.0102,-0.0098,-0.0089,-0.0073,-0.0014,-0.0003,-0.0049,0.0044,0.0057,0.0097,0.0099,0.0109,0.0113,0.0221,0.0222,0.0222,0.0157,0,0,0,0,0,0,-0.02,-0.0195,-0.0201,-0.0157,-0.0147,-0.0127,-0.0098,-0.0088,-0.0071,-0.0067,-0.0005,0.0006,0.0046,0.0091,0.0101,0.0105,0.0117,0.022,0.0221,0.0222,0.0159,0.0156,0.0153,0,0,0,0,0,-0.0202,-0.0213,-0.0202,-0.0198,-0.0156,-0.0128,-0.0119,-0.0084,-0.0071,-0.0068,-0.0022,0.0004,0.0105,0.0094,0.0107,0.0112,0.022,0.0221,0.0222,0.016,0.0156,0.0153,0,0,0,0,0,0,-0.0237,-0.0207,-0.0195,-0.0196,-0.0169,-0.0119,-0.0116,-0.0091,-0.0052,-0.0049,0.0008,0.0022,0.0059,0.0096,0.0083,0.015,0.0168,0.0171,0.0116,0.0113,0.0111,0.0088,0.012,0,0,0,0,0,-0.025,-0.0251,-0.0213,-0.0216,-0.0206,-0.0163,-0.0148,-0.0125,-0.0085,-0.0068,-0.0022,0.0029,0.0074,0.01,0.0143,0.0178,0.0217,0.0192,0.0189,0.0186,0.0178,0.0246,0.0248,0.0226,0.0226,0.0226,0,0,-0.0265,-0.025,-0.0251,-0.0224,-0.0201,-0.0192,-0.0153,-0.0138,-0.0125,-0.0061,-0.0032,0.0016,0.0081,0.0119,0.014,0.015,0.0213,0.0188,0.0185,0.0178,0.0247,0.0249,0.0251,0.0227,0.0227,0.0227,0,0,-0.0299,-0.0283,-0.0296,-0.0277,-0.025,-0.022,-0.022,-0.0174,-0.0148,-0.0115,-0.0063,-0.0014,0.005,0.0102,0.0136,0.0145,0.0192,0.0159,0.013,0.0195,0.0197,0.02,0.0245,0.0252,0.0161,0.0161,0.0161,0,-0.0321,-0.033,-0.0295,-0.0299,-0.0292,-0.0238,-0.0247,-0.021,-0.0155,-0.0134,-0.0117,-0.0007,0.0044,0.0104,0.0108,0.0137,0.0174,0.0134,0.019,0.0193,0.0197,0.0243,0.0251,0.0158,0.0159,0.0159,0.0159,0,-0.0358,-0.0366,-0.0372,-0.0361,-0.0345,-0.0345,-0.0295,-0.027,-0.0234,-0.0193,-0.0132,-0.0054,0.0011,0.004,0.0075,0.0128,0.0145,0.0173,0.0192,0.0194,0.0244,0.0253,0.0154,0.0155,0.0156,0.0157,0,0,-0.0401,-0.0402,-0.0405,-0.0417,-0.0381,-0.0375,-0.0349,-0.031,-0.0296,-0.0226,-0.0195,-0.0105,-0.0059,-0.0017,0.0046,0.0104,0.0158,0.0139,0.0144,0.0171,0.0288,0.0261,0.027,0.0195,0.0196,0.0198,0.0309,0,-0.0443,-0.0483,-0.0459,-0.0487,-0.0502,-0.0448,-0.0432,-0.0387,-0.0333,-0.0286,-0.0188,-0.0136,-0.0079,-0.0048,0.002,0.0128,0.0182,0.0125,0.0293,0.0297,0.0263,0.028,0.0202,0.0317,0.0319,0.0321,0.0322,0,-0.0484,-0.0508,-0.0553,-0.0563,-0.0563,-0.0567,-0.0535,-0.0511,-0.0422,-0.0378,-0.0296,-0.0216,-0.0111,-0.007,0.0113,0.0073,0.0165,0.0247,0.0254,0.0257,0.0289,0.032,0.034,0.0339,0.0338,0.0336,0.0335,0,-0.0542,-0.057,-0.0616,-0.0619,-0.0615,-0.0623,-0.0613,-0.0547,-0.0529,-0.0433,-0.0405,-0.0264,-0.0192,-0.005,0.0122,0.012,0.0316,0.0341,0.0404,0.0404,0.0421,0.0418,0.0456,0.0456,0.0455,0.0455,0.0455,0,-0.059,-0.0626,-0.0655,-0.0681,-0.0733,-0.0698,-0.0721,-0.0681,-0.0622,-0.06,-0.0463,-0.0408,-0.0184,-0.0041,0.0108,0.0284,0.0312,0.0397,0.0433,0.0391,0.0383,0.0428,0.0423,0.0459,0.0458,0.0457,0.0457,0,-0.0637,-0.0656,-0.0717,-0.0748,-0.0766,-0.0802,-0.0813,-0.0818,-0.0748,-0.071,-0.0683,-0.0505,-0.031,-0.0093,0.0152,0.0258,0.0433,0.0483,0.041,0.044,0.0479,0.047,0.0567,0.0567,0.0567,0.0567,0.0567,0,-0.0662,-0.0701,-0.0781,-0.0833,-0.0855,-0.0902,-0.0933,-0.0891,-0.0883,-0.0768,-0.0751,-0.0561,-0.0421,-0.0095,0.0128,0.0413,0.0446,0.0524,0.0511,0.0466,0.0492,0.0483,0.0474,0.0567,0.0567,0.0567,0.0567,0,-0.0709,-0.0744,-0.0797,-0.0908,-0.0971,-0.1027,-0.1059,-0.1062,-0.099,-0.0936,-0.0794,-0.06,-0.0381,-0.0109,0.0114,0.0315,0.0471,0.0525,0.0527,0.0515,0.0468,0.0491,0.0483,0.0568,0.0568,0.0568,0.0568,0,-0.0739,-0.0794,-0.0876,-0.0966,-0.1059,-0.1117,-0.1127,-0.1098,-0.1074,-0.0931,-0.089,-0.0628,-0.0465,-0.0161,0.0042,0.0243,0.0291,0.0337,0.0349,0.0352,0.0255,0.0161,0.0197,0,0,0,0,0,-0.0758,-0.0826,-0.0924,-0.102,-0.1114,-0.116,-0.1193,-0.1178,-0.1113,-0.1027,-0.095,-0.0739,-0.04,-0.0248,-0.0051,0.003,0.0311,0.0262,0.0365,0.0568,0.0568,0.0489,0,0,0,0,0,0,-0.0775,-0.0871,-0.0926,-0.1046,-0.1118,-0.1205,-0.1229,-0.1187,-0.1121,-0.1028,-0.0846,-0.0718,-0.0389,-0.0511,-0.0055,0.0009,0.0093,0.0434,0.0438,0.0568,0.0568,0.0568,0.0487,0,0,0,0,0]}]]